This demonstration page uses our WeatherBlox Daily Observations layout. Learn more.

Left ArrowRight Arrow

Hourly Observations for May 30, 2021

Temp ( °F °C ) Dew Point ( °F °C ) Humidity (%) Winds ( mph kmh ) Pressure ( in mb ) Visibility ( mi km ) Precip ( " mm )
12:53 am 00:53 Clear 45 7.2 35 1.7 68 68 NNE 3 6 30.19 1022 10 16 N/A
1:53 am 01:53 Clear 42 5.6 36 2.2 79 79 NNW 5 7 30.19 1022 10 16 N/A
2:53 am 02:53 Partly Cloudy 43 6.1 39 3.9 86 86 N N/A 30.20 1023 10 16 N/A
3:53 am 03:53 Clear 43 6.1 36 2.2 76 76 NNE 3 6 30.19 1022 10 16 N/A
4:53 am 04:53 Clear 41 5 38 3.3 89 89 W 3 6 30.20 1023 10 16 N/A
5:53 am 05:53 Clear 40 4.4 38 3.3 93 93 N N/A 30.20 1023 10 16 N/A
6:53 am 06:53 Sunny 42 5.6 39 3.9 89 89 WSW 5 7 30.22 1023 10 16 N/A
7:53 am 07:53 Sunny 49 9.4 40 4.4 71 71 N 6 9 30.23 1024 10 16 N/A
8:53 am 08:53 Sunny 53 11.7 42 5.6 66 66 N 8 13 30.24 1024 10 16 N/A
9:53 am 09:53 Sunny 57 13.9 45 7.2 64 64 NNE 9 15 30.25 1025 10 16 N/A
10:25 am 10:25 Mostly Cloudy 58 14.4 45 7.2 62 62 NE 8 13 30.26 1025 10 16 N/A
10:45 am 10:45 Mostly Cloudy 57 13.9 45 7.2 64 64 VRB 7 11 30.26 1025 10 16 N/A
10:53 am 10:53 Mostly Cloudy 56 13.3 44 6.7 65 65 NE 9 15 30.27 1025 10 16 N/A
11:53 am 11:53 Cloudy 58 14.4 46 7.8 65 65 N 8 13 30.29 1026 10 16 N/A
12:53 pm 12:53 Cloudy 59 15 46 7.8 62 62 NNW 5 7 30.29 1026 10 16 N/A
1:53 pm 13:53 Cloudy 59 15 46 7.8 62 62 VRB 7 11 30.29 1026 10 16 N/A
2:53 pm 14:53 Cloudy 60 15.6 46 7.8 60 60 NNE 8 13 30.28 1025 10 16 N/A
3:53 pm 15:53 Cloudy 61 16.1 46 7.8 58 58 NNE 3 6 30.28 1025 10 16 N/A
4:53 pm 16:53 Mostly Cloudy 63 17.2 47 8.3 56 56 N N/A 30.26 1025 10 16 N/A
5:53 pm 17:53 Cloudy 65 18.3 46 7.8 51 51 N N/A 30.25 1024 10 16 N/A
6:53 pm 18:53 Sunny 61 16.1 50 10 67 67 N N/A 30.25 1025 10 16 N/A
7:53 pm 19:53 Sunny 61 16.1 52 11.1 72 72 N N/A 30.26 1025 10 16 N/A
8:53 pm 20:53 Sunny 54 12.2 50 10 87 87 N N/A 30.27 1025 10 16 N/A
9:14 pm 21:14 Partly Cloudy 53 11.7 50 10 89 89 N N/A 30.28 1026 10 16 N/A
9:53 pm 21:53 Clear 51 10.6 49 9.4 92 92 N N/A 30.29 1026 10 16 N/A
10:53 pm 22:53 Clear 49 9.4 47 8.3 93 93 N N/A 30.30 1026 10 16 N/A
11:53 pm 23:53 Clear 46 7.8 45 7.2 96 96 N N/A 30.30 1026 9 14 N/A

Powered by AerisWeather